Flag for Nigeria Weather past 2 weeks in Lagos, Nigeria

Now
79 °F

Scattered clouds.


Feels Like: 83 °F
Forecast: 74 / 84 °F
Wind: 10 mph from Northwest

Location: Lagos / Ikeja

Current Time: Jul 22, 2014 at 11:11:06 AM

Latest Report: Jul 22, 2014 at 10:00 AM


Visibility: 5 mi

Pressure: 30.07 "Hg

Humidity: 94%

Dew point: 77 °F

Location of LagosLocation

Historic Weather in Lagos — Graph

°F

Lagos temperature yesterday

Maximum temperature yesterday: 82 °F (at 3:00 PM)
Minimum temperature yesterday: 75 °F (at 7:00 AM)
Average temperature yesterday: 78 °F

Past Weeks' High & Low Weather Summary

 TemperatureHumidityPressure
High88 °F (Jul 19, 1:00 PM)100% (Jul 8, 8:00 AM)30.09 "Hg (Jul 8, 8:00 AM)
Low72 °F (Jul 8, 7:00 AM)66% (Jul 19, 1:00 PM)29.89 "Hg (Jul 15, 5:00 PM)
Average79 °F88%30.01 "Hg
* Reported Jul 7 9:00 AM — Jul 22 9:00 AM, Lagos, Weather by CustomWeather, © 2014

Note: Actual official high and low records may vary slightly from our data, if they occured in-between our weather recording intervals... More about our weather records

Advertising

Lagos weather history for previous 24 hours

 ConditionsComfort  
Time TempWeatherWind HumidityBarometerVisibility
9:00 AM
Jul 22
79 °FScattered clouds.2 mph89%30.07 "Hg5 mi
8:00 AM77 °FScattered clouds.No wind94%30.04 "Hg5 mi
7:00 AM75 °FScattered clouds.No wind94%30.04 "Hg5 mi
6:00 AM75 °FPassing clouds.No wind100%30.01 "HgN/A
5:00 AM75 °FPassing clouds.No wind100%30.01 "HgN/A
4:00 AM75 °FPassing clouds.No wind100%29.98 "HgN/A
3:00 AM75 °FPassing clouds.6 mph100%29.98 "HgN/A
2:00 AM75 °FPassing clouds.7 mph100%30.01 "HgN/A
1:00 AM77 °FPassing clouds.2 mph94%30.04 "HgN/A
11:00 PM
Jul 21
77 °FPassing clouds.2 mph94%30.04 "HgN/A
9:00 PM77 °FPassing clouds.3 mph94%30.01 "HgN/A
8:00 PM79 °FPassing clouds.14 mph89%29.98 "HgN/A
7:00 PM79 °FPartly sunny.5 mph89%29.98 "HgN/A
6:00 PM79 °FPartly sunny.8 mph89%29.98 "HgN/A
5:00 PM79 °FPartly sunny.8 mph89%29.98 "HgN/A
4:00 PM81 °FPartly sunny.9 mph84%29.98 "HgN/A
3:00 PM82 °FPartly sunny.8 mph79%30.01 "HgN/A
2:00 PM81 °FPartly sunny.13 mph84%30.01 "HgN/A
1:00 PM81 °FPartly sunny.15 mph84%30.04 "HgN/A
12:00 PM81 °FPartly sunny.10 mph84%30.07 "HgN/A
11:00 AM81 °FPartly sunny.14 mph84%30.07 "HgN/A
Weather by CustomWeather, © 2014

See weather overviewHow to use our weather pages